Flag for U.S.A. Weather past 2 weeks in Santa Barbara, California, U.S.A.

Now
54 °F

Overcast.


Feels Like: 54 °F
Forecast: 52 / 65 °F
Wind: No wind

Location: Santa Barbara Municipal Airport

Current Time: Jan 30, 2015 at 1:25:21 AM

Latest Report: Jan 30, 2015 at 12:53 AM


Visibility: 8 mi

Pressure: 30.00 "Hg

Humidity: 93%

Dew point: 52 °F

Location of Santa BarbaraLocation

Historic Weather in Santa Barbara — Graph

°F

Santa Barbara temperature yesterday

Maximum temperature yesterday: 74 °F (at 12:53 PM)
Minimum temperature yesterday: 54 °F (at 4:53 AM)
Average temperature yesterday: 61 °F

Past Weeks' High & Low Weather Summary

 TemperatureHumidityPressure
High79 °F (Jan 25, 1:53 PM)100% (Jan 19, 3:53 AM)30.27 "Hg (Jan 19, 3:53 AM)
Low41 °F (Jan 24, 3:53 AM)16% (Jan 25, 12:53 PM)29.92 "Hg (Jan 20, 5:53 PM)
Average57 °F72%30.10 "Hg
* Reported Jan 14 11:53 PM — Jan 29 11:53 PM, Santa Barbara, Weather by CustomWeather, © 2014

Note: Actual official high and low records may vary slightly from our data, if they occured in-between our weather recording intervals... More about our weather records

Advertising

Santa Barbara weather history for previous 24 hours

 ConditionsComfort  
Time TempWeatherWind HumidityBarometerVisibility
11:53 PM
Jan 29
55 °FPassing clouds.No wind93%30.01 "Hg9 mi
10:53 PM57 °FClear.5 mph90%30.00 "Hg8 mi
9:53 PM55 °FPassing clouds.No wind87%30.00 "Hg10 mi
8:53 PM56 °FClear.No wind84%30.00 "Hg10 mi
7:53 PM57 °FClear.3 mph83%30.00 "Hg10 mi
6:53 PM60 °FClear.No wind86%29.99 "Hg10 mi
5:53 PM62 °FClear.5 mph75%29.98 "Hg10 mi
4:53 PM68 °FSunny.3 mph55%29.97 "Hg10 mi
3:53 PM67 °FSunny.5 mph66%29.98 "Hg10 mi
2:53 PM72 °FSunny.3 mph46%29.97 "Hg10 mi
1:53 PM69 °FSunny.6 mph63%29.98 "Hg10 mi
12:53 PM74 °FPassing clouds.No wind37%29.99 "Hg10 mi
11:53 AM71 °FSunny.3 mph41%30.03 "Hg10 mi
10:53 AM69 °FSunny.3 mph51%30.05 "Hg10 mi
9:53 AM64 °FPassing clouds.No wind68%30.06 "Hg10 mi
8:53 AM59 °FOvercast.5 mph75%30.04 "Hg10 mi
7:53 AM56 °FOvercast.No wind81%30.04 "Hg10 mi
6:54 AM55 °FOvercast.No wind80%30.03 "Hg10 mi
5:53 AM55 °FClear.3 mph83%30.02 "Hg10 mi
4:53 AM54 °FClear.No wind86%30.03 "Hg10 mi
3:53 AM55 °FClear.3 mph83%30.04 "Hg10 mi
2:53 AM55 °FClear.No wind83%30.04 "Hg10 mi
1:53 AM55 °FClear.5 mph83%30.05 "Hg10 mi
Weather by CustomWeather, © 2014

See weather overviewHow to use our weather pages